When you browse on this site, cookies collect data to enhance your experience and personalize the content and advertising you see.
Visit our Privacy Policy to learn more. By continuing to use the site, you agree to this use of cookies and data.
  • en Suisse
  • Liste des pays
  • À 7 jours
  • Température de l'eau
  • Carte météo
  • Widgets météo
  • user-avatar
    Se connecter

    Météo par heure à Tvericy

    Ce jour, 23 Août, Vendredi

    Heure Température Précipitation Vent Pression Humidité
    00:00 +12°C° 0 mm 2 m/s 751 mmHg 86%
    01:00 +12°C° 0 mm 1 m/s 751 mmHg 87%
    02:00 +12°C° 0 mm 1 m/s 752 mmHg 89%
    03:00 +11°C° 0 mm 1 m/s 752 mmHg 89%
    04:00 +10°C° 0 mm 0 m/s 752 mmHg 90%
    05:00 +10°C° 0 mm 0 m/s 752 mmHg 91%
    06:00 +12°C° 0 mm 0 m/s 752 mmHg 85%
    07:00 +14°C° 0 mm 0 m/s 752 mmHg 79%
    08:00 +16°C° 0 mm 0 m/s 752 mmHg 73%
    09:00 +17°C° 0 mm 0 m/s 752 mmHg 67%
    10:00 +21°C° 0 mm 1 m/s 752 mmHg 61%
    11:00 +22°C° 0 mm 1 m/s 752 mmHg 56%
    12:00 +23°C° 0 mm 1 m/s 752 mmHg 54%
    13:00 +23°C° 0 mm 1 m/s 752 mmHg 51%
    14:00 +24°C° 0 mm 1 m/s 752 mmHg 49%
    15:00 +23°C° 0 mm 1 m/s 751 mmHg 54%
    16:00 +23°C° 0 mm 1 m/s 751 mmHg 59%
    17:00 +22°C° 0 mm 1 m/s 751 mmHg 64%
    18:00 +20°C° 0 mm 1 m/s 751 mmHg 71%
    19:00 +18°C° 0 mm 1 m/s 751 mmHg 77%
    20:00 +15°C° 0 mm 1 m/s 750 mmHg 84%
    21:00 +14°C° 0 mm 1 m/s 750 mmHg 85%
    22:00 +14°C° 0 mm 1 m/s 750 mmHg 86%
    23:00 +13°C° 0 mm 1 m/s 750 mmHg 88%

    Demain, 24 Août, Samedi

    Heure Température Précipitation Vent Pression Humidité
    00:00 +13°C° 0 mm 1 m/s 750 mmHg 88%
    01:00 +13°C° 0 mm 1 m/s 750 mmHg 89%
    02:00 +12°C° 0 mm 1 m/s 750 mmHg 90%
    03:00 +12°C° 0 mm 1 m/s 750 mmHg 91%
    04:00 +12°C° 0 mm 1 m/s 750 mmHg 91%
    05:00 +12°C° 0 mm 1 m/s 750 mmHg 92%
    06:00 +13°C° 0 mm 2 m/s 750 mmHg 87%
    07:00 +15°C° 0 mm 2 m/s 750 mmHg 81%
    08:00 +17°C° 0 mm 2 m/s 750 mmHg 75%
    09:00 +19°C° 0 mm 2 m/s 750 mmHg 71%
    10:00 +20°C° 0 mm 3 m/s 750 mmHg 66%
    11:00 +21°C° 0 mm 3 m/s 749 mmHg 61%
    12:00 +22°C° 0 mm 3 m/s 749 mmHg 60%
    13:00 +22°C° 0 mm 4 m/s 749 mmHg 59%
    14:00 +23°C° 0 mm 4 m/s 749 mmHg 58%
    15:00 +22°C° 0 mm 3 m/s 748 mmHg 62%
    16:00 +22°C° 0 mm 3 m/s 748 mmHg 66%
    17:00 +21°C° 0 mm 2 m/s 748 mmHg 70%
    18:00 +20°C° 0 mm 2 m/s 748 mmHg 77%
    19:00 +18°C° 0 mm 2 m/s 748 mmHg 83%
    20:00 +16°C° 0 mm 2 m/s 748 mmHg 89%
    21:00 +16°C° 0 mm 2 m/s 748 mmHg 91%
    22:00 +15°C° 0 mm 2 m/s 748 mmHg 93%
    23:00 +15°C° 0 mm 2 m/s 748 mmHg 95%

    Après-demain, 25 Août, Dimanche

    Heure Température Précipitation Vent Pression Humidité
    00:00 +15°C° 0 mm 2 m/s 748 mmHg 96%
    01:00 +14°C° 0 mm 2 m/s 748 mmHg 96%
    02:00 +14°C° 0 mm 2 m/s 748 mmHg 96%
    03:00 +14°C° 0 mm 2 m/s 748 mmHg 96%
    04:00 +13°C° 0 mm 2 m/s 749 mmHg 96%
    05:00 +13°C° 0 mm 1 m/s 749 mmHg 96%
    06:00 +14°C° 0 mm 1 m/s 749 mmHg 90%
    07:00 +16°C° 0 mm 1 m/s 749 mmHg 84%
    08:00 +18°C° 0 mm 1 m/s 750 mmHg 79%
    09:00 +19°C° 0 mm 2 m/s 750 mmHg 72%
    10:00 +20°C° 0 mm 2 m/s 750 mmHg 65%
    11:00 +23°C° 0 mm 2 m/s 750 mmHg 58%
    12:00 +23°C° 0 mm 2 m/s 750 mmHg 56%
    13:00 +23°C° 0 mm 2 m/s 750 mmHg 55%
    14:00 +24°C° 0 mm 1 m/s 750 mmHg 53%
    15:00 +23°C° 0 mm 1 m/s 750 mmHg 57%
    16:00 +23°C° 0 mm 1 m/s 750 mmHg 61%
    17:00 +22°C° 0 mm 1 m/s 750 mmHg 66%
    18:00 +20°C° 0 mm 1 m/s 750 mmHg 70%
    19:00 +18°C° 0 mm 1 m/s 750 mmHg 74%
    20:00 +15°C° 0 mm 1 m/s 750 mmHg 79%
    21:00 +14°C° 0 mm 1 m/s 750 mmHg 81%
    22:00 +14°C° 0 mm 1 m/s 750 mmHg 83%
    23:00 +13°C° 0 mm 1 m/s 751 mmHg 85%

    26 Août, Lundi

    Heure Température Précipitation Vent Pression Humidité
    00:00 +13°C° 0 mm 1 m/s 751 mmHg 87%
    01:00 +12°C° 0 mm 1 m/s 751 mmHg 88%
    02:00 +12°C° 0 mm 1 m/s 751 mmHg 89%
    03:00 +12°C° 0 mm 1 m/s 751 mmHg 90%
    04:00 +12°C° 0 mm 1 m/s 751 mmHg 90%
    05:00 +11°C° 0 mm 1 m/s 751 mmHg 91%
    06:00 +13°C° 0 mm 1 m/s 751 mmHg 84%
    07:00 +15°C° 0 mm 1 m/s 751 mmHg 78%
    08:00 +18°C° 0 mm 1 m/s 751 mmHg 71%
    09:00 +20°C° 0 mm 1 m/s 751 mmHg 67%
    10:00 +21°C° 0 mm 1 m/s 751 mmHg 64%
    11:00 +23°C° 0 mm 1 m/s 751 mmHg 60%
    12:00 +23°C° 0 mm 1 m/s 751 mmHg 60%
    13:00 +23°C° 0 mm 2 m/s 750 mmHg 61%
    14:00 +23°C° 0 mm 2 m/s 750 mmHg 61%
    15:00 +23°C° 0 mm 2 m/s 750 mmHg 65%
    16:00 +23°C° 0 mm 1 m/s 749 mmHg 69%
    17:00 +23°C° 0 mm 1 m/s 749 mmHg 72%
    18:00 +21°C° 0 mm 1 m/s 749 mmHg 77%
    19:00 +19°C° 0 mm 1 m/s 749 mmHg 81%
    20:00 +18°C° 0 mm 1 m/s 749 mmHg 86%
    21:00 +16°C° 0 mm 1 m/s 749 mmHg 88%
    22:00 +16°C° 0 mm 1 m/s 749 mmHg 90%
    23:00 +15°C° 0 mm 1 m/s 749 mmHg 92%

    27 Août, Mardi

    Heure Température Précipitation Vent Pression Humidité
    00:00 +15°C° 0 mm 1 m/s 749 mmHg 92%
    01:00 +14°C° 0 mm 1 m/s 748 mmHg 93%
    02:00 +14°C° 0 mm 1 m/s 748 mmHg 93%
    03:00 +14°C° 0 mm 2 m/s 748 mmHg 93%
    04:00 +14°C° 0 mm 2 m/s 748 mmHg 94%
    05:00 +14°C° 0 mm 2 m/s 748 mmHg 94%
    06:00 +15°C° 0 mm 2 m/s 748 mmHg 90%
    07:00 +17°C° 0 mm 2 m/s 748 mmHg 86%
    08:00 +18°C° 0 mm 2 m/s 748 mmHg 82%
    09:00 +19°C° 0 mm 2 m/s 748 mmHg 76%
    10:00 +21°C° 0 mm 3 m/s 748 mmHg 71%
    11:00 +24°C° 0 mm 3 m/s 748 mmHg 65%
    12:00 +24°C° 0 mm 3 m/s 747 mmHg 64%
    13:00 +25°C° 0 mm 3 m/s 747 mmHg 62%
    14:00 +25°C° 0 mm 3 m/s 747 mmHg 60%
    15:00 +25°C° 0 mm 3 m/s 747 mmHg 64%
    16:00 +24°C° 0 mm 3 m/s 747 mmHg 67%
    17:00 +24°C° 0 mm 2 m/s 747 mmHg 71%
    18:00 +21°C° 0 mm 2 m/s 747 mmHg 76%
    19:00 +19°C° 0 mm 2 m/s 747 mmHg 81%
    20:00 +17°C° 0 mm 2 m/s 747 mmHg 86%
    21:00 +17°C° 0 mm 2 m/s 747 mmHg 89%
    22:00 +16°C° 0 mm 2 m/s 747 mmHg 91%
    23:00 +15°C° 0 mm 1 m/s 748 mmHg 94%

    28 Août, Mercredi

    Heure Température Précipitation Vent Pression Humidité
    00:00 +15°C° 0 mm 1 m/s 748 mmHg 94%
    01:00 +14°C° 0 mm 1 m/s 748 mmHg 93%
    02:00 +14°C° 0 mm 1 m/s 748 mmHg 92%
    03:00 +13°C° 0 mm 1 m/s 748 mmHg 92%
    04:00 +13°C° 0 mm 1 m/s 748 mmHg 92%
    05:00 +12°C° 0 mm 1 m/s 748 mmHg 91%
    06:00 +14°C° 0 mm 1 m/s 748 mmHg 85%
    07:00 +15°C° 0 mm 1 m/s 748 mmHg 78%
    08:00 +18°C° 0 mm 1 m/s 748 mmHg 72%
    09:00 +19°C° 0 mm 1 m/s 749 mmHg 66%
    10:00 +20°C° 0 mm 2 m/s 749 mmHg 60%
    11:00 +21°C° 0 mm 2 m/s 749 mmHg 54%
    12:00 +21°C° 0 mm 2 m/s 749 mmHg 52%
    13:00 +23°C° 0 mm 2 m/s 749 mmHg 51%
    14:00 +23°C° 0 mm 1 m/s 748 mmHg 49%
    15:00 +23°C° 0 mm 1 m/s 748 mmHg 54%
    16:00 +22°C° 0 mm 1 m/s 748 mmHg 59%
    17:00 +22°C° 0 mm 1 m/s 748 mmHg 65%
    18:00 +19°C° 0 mm 2 m/s 748 mmHg 71%
    19:00 +17°C° 0 mm 2 m/s 748 mmHg 77%
    20:00 +15°C° 0 mm 2 m/s 749 mmHg 84%
    21:00 +14°C° 0 mm 2 m/s 749 mmHg 84%
    22:00 +14°C° 0 mm 2 m/s 749 mmHg 84%
    23:00 +13°C° 0 mm 2 m/s 749 mmHg 84%
    Voir plus